Total_Precipitation_Accumulation
2.41 2.56 3.92 4.09 3.55 3.34 3.40 3.22 3.18 3.13 2.97 2.88 2.74 2.62 2.48 2.31 2.13 1.98 1.82 1.72 1.67 1.68 1.71 1.71 1.76 1.78 1.96 1.85 1.77 1.96 2.09 2.18 2.18 2.14 2.18 2.28 2.28 2.43 2.56 2.82 3.08 3.23 3.12
2.02 2.45 3.82 3.97 3.40 3.07 3.13 3.15 3.27 3.22 2.98 2.78 2.63 2.59 2.33 2.21 2.11 1.96 1.80 1.73 1.65 1.68 1.79 1.86 1.82 1.77 1.87 1.76 1.75 1.96 2.09 2.10 2.11 2.16 2.38 2.54 2.57 2.62 2.45 2.66 2.92 3.25 3.19
1.86 2.13 2.93 3.58 3.34 3.10 3.04 2.98 3.18 3.23 3.00 2.80 2.71 2.68 2.29 2.14 2.11 2.02 1.93 1.90 1.82 1.80 1.77 1.85 1.92 1.88 1.92 1.88 1.93 2.08 2.19 2.12 1.99 2.07 2.61 3.39 2.86 2.67 2.81 2.99 3.19 3.15 3.13
1.75 1.85 2.29 3.24 3.17 3.02 3.18 3.11 3.14 3.19 3.14 2.97 2.79 2.50 2.19 2.18 2.22 2.24 2.25 2.17 2.01 1.96 2.02 2.02 2.03 1.92 1.95 2.02 2.11 2.21 2.39 2.31 2.24 2.19 2.57 3.25 3.18 2.97 2.98 3.17 3.35 3.11 3.06
1.66 1.81 2.47 3.10 2.92 2.80 2.89 3.04 3.15 3.28 3.27 3.18 2.86 2.36 2.15 2.12 2.13 2.19 2.29 2.23 2.11 2.02 2.04 2.05 1.92 1.83 1.87 1.91 2.03 2.16 2.33 2.34 2.45 2.15 2.38 3.05 3.56 3.31 2.86 3.04 3.21 3.07 3.01
1.57 1.68 2.20 2.83 2.77 2.65 2.72 3.11 3.07 2.99 2.96 2.91 2.66 2.36 2.16 2.19 2.08 2.14 2.20 2.13 2.03 1.86 1.81 1.84 1.80 1.71 1.73 1.76 1.80 1.98 2.28 2.43 2.29 2.22 2.53 3.11 3.55 3.28 2.70 2.75 3.01 3.16 3.14
1.55 1.49 1.79 2.38 2.51 2.58 2.73 2.97 2.91 2.77 2.70 2.53 2.36 2.23 2.10 2.12 2.10 2.06 1.94 1.76 1.70 1.68 1.68 1.82 1.81 1.64 1.68 1.72 1.72 1.75 1.92 1.96 1.95 2.22 2.53 3.04 3.13 2.99 2.56 2.60 2.97 3.27 3.27
1.50 1.39 1.54 2.01 2.24 2.29 2.38 2.79 3.01 2.75 2.71 2.46 2.21 2.12 2.06 2.00 1.95 1.83 1.64 1.57 1.58 1.68 1.75 1.73 1.68 1.60 1.66 1.71 1.75 1.81 1.94 1.61 1.41 1.71 2.13 2.84 3.34 3.14 2.64 2.54 2.85 3.15 3.37
1.62 1.47 1.43 1.46 1.67 2.02 2.32 2.42 2.66 2.72 2.63 2.42 2.08 1.97 1.97 1.81 1.64 1.59 1.61 1.66 1.59 1.62 1.62 1.57 1.52 1.56 1.69 1.79 1.80 1.80 1.76 1.49 1.33 1.65 1.84 2.68 3.41 3.30 2.80 2.59 2.72 2.87 3.13
1.52 1.43 1.33 1.25 1.31 1.48 1.75 2.00 2.23 2.49 2.37 2.17 1.99 1.96 1.95 1.74 1.55 1.53 1.50 1.73 1.72 1.63 1.65 1.58 1.50 1.51 1.59 1.74 1.69 1.54 1.36 1.17 1.20 1.44 2.07 2.72 3.59 3.48 2.96 2.69 2.62 2.59 2.66
1.38 1.28 1.24 1.17 1.23 1.33 1.40 1.53 1.75 1.91 1.99 1.79 1.58 1.64 1.52 1.29 1.19 1.28 1.32 1.69 1.82 1.88 1.83 1.73 1.68 1.62 1.51 1.53 1.50 1.30 1.07 1.05 1.26 1.46 2.08 2.99 3.51 3.43 2.93 2.65 2.62 2.43 2.33
1.44 1.27 1.13 1.12 1.13 1.16 1.16 1.42 1.61 1.42 1.42 1.38 1.34 1.24 1.17 1.20 1.26 1.08 1.22 1.57 1.56 1.62 1.66 1.65 1.64 1.46 1.17 1.04 1.09 1.04 0.98 1.07 1.16 1.31 2.04 3.06 3.32 3.30 2.93 2.59 2.43 2.26 2.16
1.30 1.19 1.06 1.11 1.06 0.97 1.05 1.20 1.42 1.49 1.50 1.52 1.43 1.38 1.21 1.08 1.04 0.92 0.93 1.08 1.13 1.21 1.20 1.27 1.30 1.10 0.92 0.91 0.94 0.94 0.94 0.98 1.13 1.32 2.09 3.13 3.46 3.42 3.19 2.78 2.55 2.35 2.29
1.18 1.23 1.07 1.03 0.99 0.88 0.78 0.84 0.99 1.07 1.12 1.17 1.25 1.29 1.26 1.25 1.15 1.00 1.01 1.08 1.11 1.10 1.24 1.25 1.26 1.13 0.97 0.84 0.85 0.93 0.94 0.94 1.13 1.44 2.01 2.86 3.48 3.65 3.56 3.13 2.84 2.60 2.43
1.29 1.22 1.13 1.08 1.04 1.02 0.96 0.87 0.82 0.84 0.92 0.98 1.08 1.10 1.16 1.20 1.19 1.14 1.08 1.17 1.16 1.15 1.22 1.20 1.05 1.07 1.05 0.93 0.90 0.92 0.96 0.96 1.14 1.29 1.67 2.34 3.09 3.78 3.92 3.61 3.12 2.81 2.68
1.24 1.30 1.25 1.13 1.12 1.02 0.98 0.99 1.00 0.93 0.96 1.00 1.06 0.99 0.99 1.05 1.01 1.09 1.13 1.21 1.13 1.16 1.25 1.15 1.10 1.12 1.14 1.04 0.94 0.96 0.94 0.98 1.08 1.23 1.42 1.83 2.32 3.03 3.75 3.88 3.49 3.11 2.86
1.15 1.26 1.34 1.30 1.27 1.14 1.06 1.06 1.07 1.02 0.95 0.97 1.02 0.91 0.89 0.99 1.01 1.09 1.15 1.17 1.16 1.16 1.18 1.23 1.25 1.18 1.09 1.04 1.03 1.00 0.95 0.97 1.14 1.27 1.35 1.57 1.69 1.90 2.69 3.52 3.78 3.59 3.35
1.17 1.18 1.24 1.23 1.27 1.29 1.23 1.16 1.12 1.07 1.03 1.06 1.06 1.00 0.95 0.94 1.03 1.26 1.30 1.16 1.21 1.30 1.33 1.40 1.37 1.28 1.20 1.21 1.22 1.16 1.10 1.13 1.26 1.36 1.31 1.33 1.43 1.39 1.72 2.31 2.88 3.27 3.61
1.14 1.14 1.18 1.19 1.38 1.44 1.39 1.38 1.32 1.22 1.24 1.26 1.25 1.23 1.15 1.06 1.17 1.42 1.53 1.36 1.31 1.47 1.45 1.35 1.40 1.47 1.46 1.52 1.38 1.37 1.34 1.37 1.36 1.28 1.27 1.34 1.43 1.46 1.56 1.55 1.83 2.26 2.96
1.02 1.02 1.10 1.19 1.31 1.46 1.61 1.67 1.66 1.57 1.52 1.63 1.68 1.63 1.46 1.39 1.41 1.61 1.79 1.72 1.61 1.74 1.77 1.65 1.77 1.85 1.79 1.86 1.68 1.55 1.49 1.48 1.41 1.41 1.38 1.46 1.59 1.51 1.55 1.55 1.56 1.43 1.86
0.84 0.80 0.91 1.12 1.31 1.47 1.62 1.79 1.97 2.08 2.13 2.06 1.99 2.01 1.94 1.80 1.87 2.00 2.00 2.22 2.24 2.20 2.24 2.18 2.37 2.44 2.17 2.02 2.39 2.30 1.86 1.53 1.40 1.47 1.56 1.63 1.76 1.80 1.78 1.78 1.76 1.52 1.44
0.75 0.75 0.84 1.04 1.33 1.52 1.71 1.93 2.12 2.46 2.59 2.52 2.49 2.34 2.25 2.19 2.24 2.15 2.27 2.50 2.50 2.58 2.65 2.51 2.71 2.87 2.54 2.26 2.76 3.25 2.81 2.29 1.63 1.37 1.48 1.64 1.85 1.90 1.85 1.73 1.77 1.74 1.67
0.61 0.66 0.78 0.91 1.14 1.47 1.80 2.07 2.28 2.52 2.76 2.83 2.68 2.59 2.51 2.54 2.61 2.54 2.52 2.66 2.67 2.72 2.88 2.90 2.88 3.07 3.05 2.71 2.68 3.28 3.28 2.89 2.40 1.79 1.62 1.68 1.89 1.99 2.03 1.98 1.83 1.86 1.79
0.63 0.71 0.83 0.92 1.07 1.27 1.54 1.94 2.31 2.57 2.90 2.91 2.75 2.72 2.71 2.71 2.72 2.68 2.70 2.80 2.80 2.76 2.82 2.86 2.86 3.19 3.47 3.29 2.99 2.73 2.68 2.70 2.77 2.41 1.97 1.79 1.90 1.98 2.10 2.01 2.04 2.13 2.10
0.71 0.76 0.88 0.98 1.13 1.29 1.54 1.89 2.27 2.52 2.75 2.92 2.86 2.69 2.61 2.65 2.52 2.40 2.52 2.71 2.73 2.72 2.71 2.85 2.97 3.27 3.36 3.32 3.25 3.10 2.90 2.70 2.31 2.40 2.36 2.12 2.04 1.93 2.02 2.18 2.27 2.32 2.26
0.79 0.88 0.99 1.13 1.31 1.46 1.58 1.70 1.87 2.09 2.42 2.59 2.69 2.68 2.64 2.63 2.45 2.26 2.32 2.42 2.52 2.59 2.55 2.58 2.77 2.96 3.23 3.39 3.33 3.17 3.16 3.10 2.87 2.65 2.32 2.20 2.33 2.18 2.03 2.02 2.11 2.20 2.34